Weather History for Mackinac Island, MI

Change the Weather History Date:

Monday, May 26, 2014

  Actual Average Record
Temperature  
Mean Temperature 60 °F -  
Max Temperature 67 °F 57 °F 80 °F (1986)
Min Temperature 53 °F 42 °F 33 °F (1992)
Degree Days  
Heating Degree Days 5    
Growing Degree Days 10 (Base 50)    
Moisture  
Dew Point 49 °F    
Average Humidity 72    
Maximum Humidity 99    
Minimum Humidity 48    
Precipitation  
Precipitation 0.00 in - - ()
Sea Level Pressure  
Sea Level Pressure 29.93 in    
Wind  
Wind Speed 11 mph (WSW)    
Max Wind Speed 17 mph    
Max Gust Speed 29 mph    
Visibility 9 miles    
Events      
Averages and records for this station are not official NWS values.
T = Trace of Precipitation, MM = Missing Value Source: NWS Daily Summary

Daily Weather History Graph

Daily Weather History Graph

Search for Another Location

Airport:

Trip Planner

Search our weather history database for the weather conditions in past years. The results will help you decide how hot, cold, wet, or windy it might be!

Date:

Astronomy

May. 26, 2014 Rise Set
Actual Time 5:55 AM EDT 9:15 PM EDT
Civil Twilight 5:19 AM EDT 9:52 PM EDT
Nautical Twilight 4:31 AM EDT 10:40 PM EDT
Astronomical Twilight 3:31 AM EDT 11:40 PM EDT
Moon 4:45 AM EDT (5/26) 7:10 PM EDT (5/26)
Length of Visible Light 16h 32m
Length of Day
15h 19m
Waning Crescent, 5% of the Moon is Illuminated
May 26
Waning Crescent
May 28
New
Jun 5
First Quarter
Jun 13
Full
Jun 19
Last Quarter

Hourly Weather History & Observations

Time (EDT) Temp. Dew Point Humidity Pressure Visibility Wind Dir Wind Speed Gust Speed Precip Events Conditions
12:18 AM 53.2 °F 41.4 °F 64% 30.00 in 10.0 mi WSW 9.2 mph - N/A   Clear
12:39 AM 54.9 °F 41.4 °F 60% 30.00 in 10.0 mi WSW 11.5 mph 17.3 mph N/A   Clear
12:58 AM 54.0 °F 41.4 °F 62% 29.99 in 10.0 mi SW 12.7 mph 16.1 mph N/A   Clear
1:18 AM 53.6 °F 41.2 °F 63% 29.99 in 10.0 mi WSW 11.5 mph 17.3 mph N/A   Clear
1:39 AM 53.2 °F 41.2 °F 64% 29.99 in 10.0 mi WSW 11.5 mph - N/A   Clear
1:58 AM 55.6 °F 41.0 °F 58% 29.98 in 10.0 mi WSW 16.1 mph 26.5 mph N/A   Clear
2:18 AM 54.3 °F 40.6 °F 60% 29.99 in 10.0 mi WSW 11.5 mph 19.6 mph N/A   Clear
2:39 AM 53.1 °F 40.6 °F 63% 29.98 in 10.0 mi WSW 11.5 mph 17.3 mph N/A   Clear
2:58 AM 54.9 °F 40.5 °F 58% 29.97 in 10.0 mi WSW 12.7 mph 18.4 mph N/A   Clear
3:19 AM 55.9 °F 40.1 °F 55% 29.97 in 10.0 mi WSW 12.7 mph - N/A   Clear
3:38 AM 58.5 °F 39.7 °F 50% 29.97 in 10.0 mi WSW 12.7 mph 19.6 mph N/A   Clear
3:58 AM 59.4 °F 39.7 °F 48% 29.96 in 10.0 mi WSW 12.7 mph 23.0 mph N/A   Clear
4:19 AM 58.3 °F 40.1 °F 51% 29.96 in 10.0 mi WSW 12.7 mph 19.6 mph N/A   Clear
4:38 AM 57.9 °F 40.3 °F 52% 29.96 in 10.0 mi WSW 11.5 mph 18.4 mph N/A   Clear
4:58 AM 58.1 °F 40.3 °F 52% 29.97 in 10.0 mi WSW 9.2 mph 16.1 mph N/A   Clear
5:19 AM 56.3 °F 40.8 °F 56% 29.96 in 10.0 mi WSW 10.4 mph - N/A   Clear
5:38 AM 56.1 °F 40.8 °F 57% 29.97 in 10.0 mi West 10.4 mph - N/A   Clear
5:59 AM 55.2 °F 41.2 °F 59% 29.96 in 10.0 mi WSW 9.2 mph - N/A   Clear
6:18 AM 58.6 °F 41.9 °F 54% 29.96 in 10.0 mi WSW 9.2 mph 18.4 mph N/A   Clear
6:38 AM 57.7 °F 42.3 °F 56% 29.97 in 10.0 mi WSW 10.4 mph 17.3 mph N/A   Clear
6:59 AM 58.1 °F 42.4 °F 56% 29.97 in 10.0 mi WSW 9.2 mph 16.1 mph N/A   Clear
7:18 AM 57.9 °F 42.8 °F 57% 29.97 in 10.0 mi WSW 9.2 mph - N/A   Clear
7:38 AM 58.5 °F 44.1 °F 59% 29.97 in 10.0 mi WSW 11.5 mph 18.4 mph N/A   Clear
7:59 AM 59.5 °F 44.8 °F 58% 29.97 in 10.0 mi WSW 11.5 mph 24.2 mph N/A   Clear
8:18 AM 59.2 °F 45.0 °F 59% 29.97 in 10.0 mi WSW 16.1 mph 25.3 mph N/A   Clear
8:39 AM 58.8 °F 45.1 °F 60% 29.97 in 10.0 mi WSW 15.0 mph 25.3 mph N/A   Scattered Clouds
8:59 AM 59.2 °F 44.8 °F 59% 29.97 in 10.0 mi WSW 12.7 mph 21.9 mph N/A   Scattered Clouds
9:18 AM 59.2 °F 44.8 °F 59% 29.97 in 10.0 mi WSW 11.5 mph 18.4 mph N/A   Scattered Clouds
9:39 AM 60.1 °F 45.5 °F 59% 29.95 in 10.0 mi WSW 9.2 mph 18.4 mph N/A   Mostly Cloudy
9:58 AM 61.2 °F 45.7 °F 57% 29.94 in 10.0 mi SW 9.2 mph - N/A   Scattered Clouds
10:19 AM 64.2 °F 47.1 °F 54% 29.94 in 10.0 mi WSW 9.2 mph - N/A   Mostly Cloudy
10:39 AM 65.1 °F 46.9 °F 52% 29.94 in 10.0 mi WSW 10.4 mph 18.4 mph N/A   Mostly Cloudy
11:19 AM 64.4 °F 47.5 °F 54% 29.93 in 10.0 mi WSW 9.2 mph 20.7 mph N/A   Scattered Clouds
11:39 AM 64.6 °F 48.2 °F 55% 29.93 in 10.0 mi WSW 11.5 mph 24.2 mph N/A   Scattered Clouds
11:58 AM 65.5 °F 48.9 °F 55% 29.93 in 10.0 mi WSW 16.1 mph 26.5 mph N/A   Mostly Cloudy
12:19 PM 64.4 °F 48.6 °F 56% 29.93 in 10.0 mi West 9.2 mph 24.2 mph N/A   Overcast
12:38 PM 63.5 °F 48.6 °F 58% 29.93 in 10.0 mi West 12.7 mph - N/A   Overcast
12:59 PM 63.5 °F 49.6 °F 61% 29.95 in 10.0 mi West 17.3 mph 21.9 mph N/A   Overcast
1:18 PM 63.0 °F 52.5 °F 69% 29.95 in 10.0 mi West 11.5 mph 17.3 mph N/A   Overcast
1:39 PM 65.1 °F 54.7 °F 69% 29.95 in 10.0 mi West 11.5 mph 20.7 mph N/A   Mostly Cloudy
1:58 PM 65.7 °F 56.3 °F 72% 29.94 in 10.0 mi West 13.8 mph 19.6 mph N/A   Overcast
2:19 PM 65.1 °F 55.8 °F 72% 29.93 in 10.0 mi WSW 12.7 mph 20.7 mph N/A   Overcast
2:38 PM 65.8 °F 55.9 °F 70% 29.92 in 10.0 mi WSW 11.5 mph 23.0 mph N/A   Overcast
2:58 PM 66.9 °F 56.1 °F 68% 29.91 in 10.0 mi West 11.5 mph 19.6 mph N/A   Mostly Cloudy
3:19 PM 67.8 °F 57.4 °F 69% 29.91 in 10.0 mi WSW 10.4 mph 21.9 mph N/A   Scattered Clouds
3:39 PM 67.6 °F 58.1 °F 71% 29.91 in 10.0 mi WSW 15.0 mph 23.0 mph N/A   Mostly Cloudy
3:59 PM 66.4 °F 58.3 °F 75% 29.90 in 10.0 mi WSW 12.7 mph 19.6 mph N/A   Mostly Cloudy
4:19 PM 62.4 °F 57.2 °F 83% 29.90 in 10.0 mi WSW 16.1 mph 25.3 mph N/A   Mostly Cloudy
4:38 PM 60.8 °F 59.2 °F 94% 29.89 in 2.0 mi WSW 15.0 mph 24.2 mph N/A   Overcast
4:59 PM 63.5 °F 61.3 °F 93% 29.88 in 7.0 mi WSW 15.0 mph 28.8 mph N/A   Mostly Cloudy
5:19 PM 64.8 °F 61.3 °F 89% 29.89 in 10.0 mi West 16.1 mph 26.5 mph N/A   Scattered Clouds
5:38 PM 63.0 °F 59.9 °F 90% 29.89 in 10.0 mi WSW 13.8 mph 19.6 mph N/A   Scattered Clouds
5:59 PM 58.1 °F 57.4 °F 97% 29.88 in 1.0 mi WSW 15.0 mph 21.9 mph N/A   Overcast
6:19 PM 58.8 °F 58.1 °F 97% 29.88 in 7.0 mi West 9.2 mph 17.3 mph N/A   Mostly Cloudy
6:39 PM 59.5 °F 58.5 °F 96% 29.88 in 7.0 mi WSW 9.2 mph 18.4 mph N/A   Clear
6:59 PM 58.8 °F 58.1 °F 97% 29.88 in 5.0 mi WSW 10.4 mph - N/A   Clear
7:18 PM 58.6 °F 57.7 °F 97% 29.88 in 5.0 mi WSW 5.8 mph 21.9 mph N/A   Scattered Clouds
7:39 PM 57.4 °F 57.0 °F 99% 29.88 in 5.0 mi West 6.9 mph - N/A   Mostly Cloudy
7:59 PM 56.5 °F 55.0 °F 95% 29.89 in 10.0 mi West 5.8 mph - N/A   Scattered Clouds
8:18 PM 56.3 °F 54.9 °F 95% 29.89 in 10.0 mi WNW 5.8 mph - N/A   Clear
8:39 PM 56.3 °F 54.7 °F 94% 29.89 in 10.0 mi West 6.9 mph - N/A   Clear
8:58 PM 55.6 °F 54.5 °F 96% 29.88 in 10.0 mi West 6.9 mph - N/A   Clear
9:19 PM 55.2 °F 54.0 °F 96% 29.89 in 10.0 mi WNW 6.9 mph - N/A   Scattered Clouds
9:39 PM 53.6 °F 52.7 °F 97% 29.88 in 7.0 mi West 6.9 mph - N/A   Scattered Clouds
9:58 PM 53.2 °F 52.7 °F 98% 29.89 in 7.0 mi West 5.8 mph - N/A   Clear
10:19 PM 54.0 °F 53.6 °F 99% 29.88 in 7.0 mi SW 9.2 mph - N/A   Clear
10:39 PM 55.2 °F 54.5 °F 97% 29.88 in 7.0 mi WSW 8.1 mph - N/A   Clear
10:58 PM 56.3 °F 55.4 °F 97% 29.88 in 7.0 mi WSW 8.1 mph - N/A   Clear
11:19 PM 56.5 °F 55.8 °F 97% 29.88 in 7.0 mi West 9.2 mph - N/A   Clear
11:39 PM 57.6 °F 56.7 °F 97% 29.87 in 7.0 mi WSW 11.5 mph - N/A   Clear
11:58 PM 57.6 °F 56.7 °F 97% 29.88 in 7.0 mi West 5.8 mph - N/A   Clear